Theta_e
307 307 306 307 306 306 306 305 306 305 306 305 304 304 303 305 305 306 306 305 304 304 301 299 299 299 298 297 297 297 297 296 298 297 297 300 303 303 303 304 302 301 299
305 305 304 305 304 305 305 306 306 305 306 305 304 304 303 304 305 307 306 307 306 305 303 299 299 298 298 297 296 295 295 296 297 295 294 291 296 299 301 301 302 300 299
304 304 304 303 302 303 304 306 306 305 306 305 305 304 304 304 303 304 304 306 307 306 304 303 300 299 297 296 296 295 295 294 295 296 294 289 289 292 297 299 299 299 297
305 305 304 303 302 303 303 306 306 306 306 305 304 302 301 302 304 304 304 304 305 305 304 304 302 300 299 297 296 297 294 294 293 295 299 295 294 291 290 295 297 297 298
303 303 304 305 304 304 303 304 305 306 306 305 304 302 301 302 303 302 302 302 303 304 304 304 302 300 299 298 297 295 294 294 293 293 293 293 293 292 292 289 292 293 295
301 302 302 303 303 303 303 303 304 305 305 305 304 303 302 302 302 302 302 302 302 303 303 303 302 300 299 298 297 295 294 293 293 293 293 293 292 290 290 288 289 289 291
296 297 298 299 301 302 303 303 304 305 305 305 304 303 302 302 302 302 301 300 299 299 300 301 301 300 299 299 298 296 294 293 292 292 292 293 293 293 292 290 289 288 289
296 296 297 296 299 303 303 303 304 304 305 304 304 304 303 303 302 300 299 298 297 298 299 299 300 301 300 299 298 296 295 293 292 291 291 292 293 293 292 291 289 286 285
297 298 299 299 298 300 303 304 304 304 304 304 303 303 301 298 298 297 296 295 296 298 298 297 298 300 300 299 297 295 294 293 292 291 291 291 292 292 292 292 290 288 283
297 298 299 300 300 301 302 303 304 304 303 303 301 299 297 296 296 295 294 295 295 296 297 297 298 299 300 299 297 295 294 293 292 292 291 290 291 291 291 291 290 289 287
297 297 299 300 300 301 301 301 301 301 299 298 296 295 295 295 295 294 294 294 295 295 296 297 298 298 298 298 297 296 295 294 293 292 291 290 291 290 290 290 289 288 287
297 297 298 299 299 299 299 298 297 297 297 296 295 295 294 294 293 292 293 293 293 293 294 294 295 296 296 296 296 295 295 294 293 292 291 290 292 289 289 289 288 288 287
296 297 296 297 297 297 296 296 295 295 295 294 293 293 292 292 291 292 292 293 292 292 292 292 292 293 293 293 294 294 294 294 293 293 292 291 290 288 288 287 287 287 290
296 295 294 294 294 294 294 294 294 293 294 293 292 291 291 291 291 292 292 292 292 291 291 292 292 292 292 292 292 292 292 291 292 292 291 291 290 289 288 287 287 287 286
291 292 292 291 292 292 292 292 292 293 292 291 291 291 292 292 291 291 291 291 291 291 291 291 291 291 291 293 292 293 291 290 290 290 291 291 292 295 294 291 287 287 286
290 290 291 290 291 290 291 291 291 291 291 291 291 291 291 291 291 290 290 290 290 290 290 290 290 289 291 295 297 297 291 291 290 288 289 290 292 292 296 298 299 291 286
290 291 290 291 290 290 291 291 291 291 290 290 291 291 291 290 290 290 290 289 288 288 288 288 289 288 289 295 296 298 293 290 289 288 288 289 291 292 290 293 295 297 297
290 290 290 290 290 291 291 291 290 290 290 290 290 291 290 290 290 289 289 288 288 288 288 288 288 288 289 294 295 296 292 289 288 287 287 287 287 288 290 289 288 289 291
291 292 291 291 291 291 291 290 290 290 290 290 290 291 290 290 289 288 288 288 288 287 287 288 287 287 288 293 294 295 290 288 287 287 287 286 287 292 295 291 288 288 286
293 292 292 292 291 290 290 290 289 289 289 290 290 291 290 289 288 288 287 287 287 287 286 286 286 288 287 291 293 294 289 286 286 286 286 290 290 293 295 291 289 287 284
293 292 291 291 290 290 290 289 288 288 290 291 290 289 288 287 286 286 285 285 284 284 284 284 285 284 286 286 292 294 289 286 285 285 285 286 291 292 294 294 290 288 288
291 291 290 289 289 290 289 288 288 289 288 287 286 285 284 285 285 283 283 282 282 281 281 281 283 284 284 288 290 293 294 293 286 285 285 285 290 292 293 294 293 294 293
289 288 288 287 287 286 287 286 286 287 286 284 283 283 283 283 283 281 281 281 281 280 281 280 281 283 284 283 289 291 292 293 292 287 287 291 292 292 291 294 294 293 289
288 287 286 285 285 285 286 285 285 285 284 283 282 282 281 283 283 282 282 281 280 280 281 281 281 282 282 281 283 283 283 288 288 289 285 287 290 291 290 290 289 287 287
287 286 284 284 284 284 284 284 284 283 282 282 281 281 282 282 281 282 282 282 282 283 282 282 281 281 282 284 288 288 285 284 285 288 286 285 285 285 284 286 286 286 286
285 283 283 282 283 283 283 284 284 283 282 281 281 281 282 282 282 281 282 287 289 290 291 291 290 288 289 292 292 292 292 292 292 288 286 285 285 284 284 283 283 285 286
Wind_Speed
4 5 8 8 7 7 7 7 7 6 4 2 2 1 1 1 1 2 2 3 2 2 2 1 2 2 2 3 3 3 5 3 4 3 4 3 2 1 1 2 3 4 3
8 7 8 8 9 8 8 7 7 7 4 2 2 2 2 2 1 1 1 2 2 2 2 2 1 0 1 3 2 3 2 2 3 2 1 3 4 3 2 1 2 4 3
11 8 8 9 7 8 9 8 7 7 5 5 3 2 3 2 1 1 1 2 3 3 3 4 3 3 2 2 2 1 1 1 2 2 2 2 2 3 2 1 0 3 1
9 9 10 7 8 8 7 7 7 7 5 6 3 3 3 2 2 1 1 2 3 5 5 5 5 4 3 4 3 2 2 2 2 3 1 1 2 1 4 2 1 1 3
11 10 10 10 6 7 8 7 7 6 6 6 5 4 2 2 0 0 2 3 4 5 6 6 5 5 4 4 4 3 2 1 1 2 1 1 1 1 2 4 4 2 2
7 6 4 4 5 5 6 6 7 6 6 6 6 6 6 3 1 1 2 3 2 3 4 4 5 5 5 5 4 4 4 3 3 3 3 3 3 2 2 3 3 3 4
7 6 6 7 6 7 7 6 6 6 7 7 6 6 5 4 3 3 2 3 3 2 5 4 4 4 6 6 4 4 4 4 3 4 3 3 3 2 2 1 3 2 3
5 5 6 5 6 7 7 7 7 6 6 6 5 4 4 3 2 1 1 2 2 3 4 6 5 5 6 6 5 4 4 5 5 6 5 3 4 3 3 3 3 3 2
6 7 6 5 5 5 6 6 6 4 5 6 5 4 3 3 3 2 1 2 3 3 5 5 6 6 5 5 4 4 5 4 4 5 5 4 4 4 4 3 4 4 2
5 3 2 3 3 4 4 5 6 7 6 5 4 3 3 2 1 0 2 2 3 3 5 5 5 5 5 4 4 4 5 4 4 4 5 5 4 4 4 4 3 3 4
5 5 4 3 3 3 4 4 4 5 5 4 4 4 2 1 1 0 2 2 3 4 4 5 5 5 5 5 4 5 5 5 6 5 5 6 6 4 4 4 4 4 4
7 5 5 5 4 4 4 5 4 5 5 4 3 1 0 1 0 1 2 2 3 3 4 5 5 5 4 4 4 5 5 5 6 6 6 7 5 6 6 4 6 5 5
6 5 4 5 4 4 3 4 4 4 4 3 2 1 1 2 2 3 3 2 3 4 5 4 4 5 5 5 5 4 5 5 5 6 6 7 6 6 5 6 6 5 5
8 6 5 6 5 5 5 4 4 4 4 4 3 3 3 4 3 2 2 3 3 4 4 4 4 4 5 5 5 5 5 5 4 5 6 6 6 7 7 6 7 6 5
7 7 7 6 6 6 6 4 4 5 4 4 3 4 4 3 2 2 3 3 3 4 4 4 5 5 4 3 5 5 5 5 6 5 5 6 7 12 11 5 6 6 6
7 6 5 5 6 6 6 5 5 6 4 4 4 2 2 3 3 3 4 4 5 5 4 5 5 6 4 8 10 8 5 5 5 6 6 6 10 10 14 14 16 12 7
5 5 8 7 7 7 7 7 6 4 4 3 3 3 3 4 4 4 3 4 5 3 5 6 5 6 6 10 12 11 5 5 5 5 6 7 5 9 6 11 12 12 19
6 5 4 3 4 3 4 3 4 4 4 3 3 4 4 5 4 3 5 4 3 4 5 5 6 6 6 12 13 13 6 5 6 6 6 6 8 7 8 7 7 6 5
5 3 3 3 3 5 4 4 3 3 2 4 4 4 4 4 4 5 6 4 4 4 4 5 6 6 8 12 13 11 5 6 7 6 6 6 7 12 15 6 7 5 5
4 5 4 2 3 3 3 4 3 2 3 4 4 3 3 4 5 5 6 4 3 5 4 6 6 9 8 13 14 11 4 5 5 5 6 11 10 15 15 6 5 5 6
6 4 3 3 3 3 4 3 2 3 3 3 3 3 3 5 5 5 3 4 5 5 6 6 7 7 7 9 15 14 5 5 5 5 5 4 13 14 15 14 4 5 4
4 4 4 3 1 1 3 2 1 1 1 1 2 4 5 4 4 4 5 4 5 6 6 6 7 5 6 10 12 15 15 12 6 7 5 5 12 14 17 14 9 12 10
5 3 4 3 2 3 2 3 2 2 3 2 4 4 5 5 5 4 6 4 5 5 6 5 6 8 6 5 15 16 17 18 11 4 8 13 13 14 13 16 13 12 4
5 4 5 4 2 1 1 2 3 3 3 4 6 5 4 6 6 3 4 4 4 5 6 6 6 8 7 5 7 5 6 11 9 8 5 7 12 15 12 10 7 3 3
5 5 6 5 4 3 3 3 4 2 4 4 6 6 4 6 5 5 5 5 6 7 7 7 5 7 9 10 13 11 5 5 7 9 5 5 4 5 5 5 5 4 4
5 5 5 4 4 3 4 6 4 2 4 5 5 5 4 5 5 5 8 11 16 18 17 19 15 9 16 23 21 19 19 20 18 9 7 7 7 7 6 6 6 6 8
Wind_Direction
130 159 173 179 160 163 165 176 169 175 147 140 135 108 176 139 196 195 175 157 161 141 96 57 14 20 20 357 341 328 11 332 341 22 5 358 334 269 152 156 147 143 127
169 186 172 171 182 171 180 180 182 167 177 160 180 167 159 169 157 136 225 232 198 195 188 186 244 295 1 351 344 26 347 306 4 65 83 357 329 337 348 58 147 174 148
181 183 182 189 179 180 186 185 188 175 179 176 122 78 57 46 44 309 279 252 231 229 219 221 210 222 187 238 242 201 134 302 320 25 136 7 277 328 328 344 1 155 165
189 187 195 192 189 199 180 190 186 176 179 170 157 151 164 167 219 182 242 287 256 250 243 235 222 224 219 226 234 196 186 129 269 333 6 208 180 226 326 322 335 278 198
187 190 199 196 195 177 187 198 185 179 169 170 163 155 173 204 174 270 293 290 283 265 264 250 245 243 237 242 231 240 215 173 174 208 329 330 314 233 202 285 311 332 245
201 210 206 174 197 195 191 192 177 181 167 171 174 179 188 186 186 261 284 289 297 311 316 293 252 246 248 241 233 226 216 213 214 215 218 216 211 215 193 247 272 253 295
153 171 188 202 201 194 191 182 181 181 179 181 184 185 195 193 221 250 269 316 319 319 309 313 289 257 242 239 230 219 220 212 212 222 242 231 227 197 202 181 273 276 303
139 166 189 187 189 187 182 174 183 179 177 182 191 188 194 200 215 232 233 266 266 286 296 300 290 275 261 241 225 215 223 208 224 234 227 236 242 215 201 187 173 299 293
165 180 185 193 188 176 181 181 177 180 178 186 182 191 170 168 205 239 278 310 310 288 301 305 301 298 282 256 240 235 245 225 236 237 239 232 249 228 220 204 180 169 257
177 165 155 151 163 171 175 177 183 183 182 172 161 162 168 169 182 219 296 299 297 298 309 308 308 309 312 294 261 250 249 235 247 233 239 244 242 250 234 219 204 195 182
179 179 175 165 146 136 157 161 153 144 132 135 149 159 183 207 193 328 293 284 295 303 314 323 330 331 328 325 310 284 274 257 261 260 246 253 244 239 236 212 207 206 176
190 176 161 142 135 136 141 147 144 147 164 160 142 164 290 355 295 292 289 293 301 317 332 341 345 341 333 324 307 294 285 264 266 261 259 255 257 243 237 218 219 210 198
173 172 163 176 178 176 168 161 165 167 163 154 148 188 227 220 245 263 277 312 337 338 337 342 332 324 319 312 304 287 285 279 265 263 258 258 250 254 236 226 223 213 220
180 182 189 199 195 193 186 188 190 181 181 178 189 225 239 227 242 272 308 328 329 322 321 318 312 315 315 312 305 306 301 291 279 278 270 269 258 252 246 234 226 222 210
193 201 201 201 203 200 206 204 204 189 185 191 215 237 243 238 274 308 306 304 311 302 300 313 318 319 311 291 303 293 287 280 289 290 284 275 265 265 256 242 231 210 215
216 216 216 206 206 205 208 196 200 198 179 202 242 270 268 266 266 272 285 298 306 310 312 317 305 307 290 295 301 302 276 277 284 292 291 281 289 285 282 275 249 218 199
189 196 196 198 204 205 196 197 198 177 185 218 245 252 254 258 267 277 286 295 293 293 290 292 296 290 285 296 301 299 275 263 268 269 284 288 278 286 277 281 279 263 232
162 163 174 191 203 192 182 174 171 183 202 239 269 271 269 268 269 275 278 274 263 270 281 288 289 292 291 296 299 297 275 264 264 265 269 271 280 273 273 260 261 243 235
167 172 165 182 194 193 202 182 177 191 219 258 271 270 257 266 289 288 289 282 283 292 281 280 293 292 289 291 293 292 265 256 258 259 262 267 272 284 290 254 241 246 261
157 162 169 150 168 231 185 167 189 213 260 268 267 261 252 273 281 280 286 272 252 271 290 289 265 272 279 289 290 287 248 253 258 267 261 283 287 293 297 270 232 245 246
172 149 151 179 196 166 139 150 162 236 259 283 266 275 289 277 273 284 264 274 279 284 284 279 282 268 253 270 287 286 253 235 250 246 261 250 289 298 298 282 228 233 219
158 131 137 125 55 104 152 156 220 247 298 297 277 284 285 281 285 268 278 273 277 281 283 287 293 281 274 277 282 292 288 264 237 252 250 257 281 288 296 284 245 269 247
151 135 139 134 83 64 120 153 232 256 261 281 280 276 285 283 283 279 290 301 296 274 276 267 280 286 283 278 292 293 293 287 272 237 251 276 282 293 308 273 244 258 211
168 154 142 145 175 229 177 213 247 254 265 283 293 297 287 286 283 270 252 259 267 278 280 280 274 283 284 272 279 273 280 288 286 283 268 272 277 280 286 294 274 240 226
165 164 169 176 200 223 257 258 265 279 286 285 284 283 274 274 277 263 258 258 248 239 269 266 252 270 279 274 276 283 268 248 251 255 244 246 242 253 252 265 260 240 213
168 167 181 189 225 240 285 295 291 279 269 277 275 265 269 270 270 275 292 274 270 279 277 276 272 273 268 281 291 294 290 285 280 274 267 261 256 246 251 245 253 241 238